OBJECT J, 51832

Orbit data source: Space-Track

You're viewing an Uncataloged Satellite

Recently launched and/or uncataloged satellites may have evolving metadata. Metadata may include but not limited to: Owner, Maufacturer, Bus, Motor, and Mission.

OBJECT J, 51832 is a satellite owned by Sanya RI (CN) in SSO that was launched on Sun, 27 Feb 2022 UTC via a CHANG ZHENG 8 launch vehicle from the Wenchang Satellite Launch Center (WSC). Unknown objects in Earth's orbit typically refer to objects detected orbiting the Earth but have not yet been identified or cataloged. These objects could be anything from previously untracked satellites, spent rocket stages, debris from satellite collisions, or even natural meteoroids temporarily captured by Earth's gravity.

Loading next visibility...
Identifier
51832, 2022-019J
Orbit
SSO
Last TLE update
5 hours ago
Origin
Flag of CNSANYZ (CN / PRC)
Manufacturer
DFH Shenzhen
Mission
Civil Imaging
Bus & Motor
HAINAN-1, Unknown motor
Mass
65 kg wet, 65 kg dry
Launch date (UTC)
2022-02-27 (3 years ago)
Launch vehicle
CHANG ZHENG 8
Launch site
Wenchang Satellite Launch Center (WSC)
Object type
Unknown
Shape & HBR
Box + 2 Pan, 2 m
Radar Cross Section
0.583 m², Large (>1 m²)

Expand to show TLE details & history

TLE from 5 hours ago
0 OBJECT J
1 51832U 22019J   25182.52527752  .00001781  00000-0  89862-4 0  9990
2 51832  97.3888 248.8941 0009499  25.6531 334.5172 15.18356927184558
Epoch: 2025-07-01T12:36Z
TLE epoch observation values (Epoch: 2025-07-01T12:36:23.977Z)
Latitude
-0.00011°
Longitude
139.97473°
Altitude
507.987 km
Speed
7.613 km/s
True Right ascension
16h 35m 34s
True Declination
0° 00' 00"
Sunlit
Object was in full shadow at epoch
Visualization orbit readout
Latitude
80.05717°
Longitude
7.5509°
Altitude
522.126 km
Speed
7.61 km/s
Apparent Right ascension
16h 46m 34s
Apparent Declination
34° 12' 19"
Sunlit
Object is in daylight
Visualization observer readout
Local Sidereal Time
05:26:11
Azimuth
8.48° NNE
Elevation
-15.316°
Doppler factor
1
Orbital elements
Apogee altitude
514.314 km
Perigee altitude
501.232 km
Semi-major axis
6,885.91 km
Eccentricity
0.00095
Inclination
97.3888°
RAAN
248.8941°
Arg. of periapsis
25.6531°
True anomaly
Unknown
Mean anomaly
334.5172°
Eccentric anomaly
Unknown
Mean motion
3.7984 °/min
Orbital period
94.78 mins
BSTAR
0.000089862
Loading maneuver chart data...
Loading SW <> Apogee altitude chart data...
Loading historical data...
Loading historical data...
Loading historical data...
Loading historical data...
Loading historical data...
Loading historical data...
Loading historical data...

OBJECT J Visibility forecast

Observer location: undefined°, undefined°

Span
Click to sort rows by Start time (UTC) header in descending order
Start Az.
Max El. time (UTC)
Max El. Az.
Max El.
End time (UTC)
End Az.
6 mins2025-07-01 17:54:31.795Z346.624° N2025-07-01 17:57:31.795Z283.055° WNW26.604°2025-07-01 18:00:31.795Z227.182° WSW
6 mins2025-07-02 04:33:31.795Z172.515° S2025-07-02 04:35:31.795Z194.566° SSW42.775°2025-07-02 04:39:31.795Z345.689° N
5 mins2025-07-02 17:39:31.795Z344.184° N2025-07-02 17:41:31.795Z261.864° W35.675°2025-07-02 17:44:31.795Z211.481° SW
|